Regional Weather Roundup
Issued by NWS Wakefield, VA

Home | Current Version | Previous Version | Graphics & Text | Print | Product List | Glossary On
Versions: 1 2 3 4 5 6 7 8 9 10 11 12 13 14 15 16 17 18 19 20 21 22 23 24 25 26 27 28 29 30 31 32 33 34 35 36 37 38 39 40 41 42 43 44 45 46 47 48 49 50
000
ASUS41 KAKQ 032010
RWRAKQ

REGIONAL WEATHER ROUNDUP
NATIONAL WEATHER SERVICE WAKEFIELD VA
300 PM EST TUE MAR 03 2015

Note: "fair" indicates few or no clouds below 12,000 feet with no
significant weather and/or obstructions to visibility. * = Denotes
station may not report precipitation (e.g., rain,snow,etc.),
thunder or fog.

VAZ042-051-052>054-056-032100-
NORTHERN VIRGINIA

CITY           SKY/WX    TMP DP  RH WIND       PRES   REMARKS
WASH NATIONAL  CLOUDY    34  22  61 S9        30.23F
DULLES         CLOUDY    32  18  56 SE7       30.19F
FORT BELVOIR   CLOUDY    33  22  63 SE7       30.21F
QUANTICO       CLOUDY    34  24  67 S10       30.23F
FREDERICKSBRG* CLOUDY    36  21  53 S8        30.21F
STAFFORD*      CLOUDY    34  15  46 S6        30.25F
WARRENTON      CLOUDY    36  23  61 S9        30.18F
CULPEPER*      CLOUDY    36  18  48 S7        30.19F
MANASSAS*      CLOUDY    34  19  55 S9        30.20F
LEESBURG*      CLOUDY    34  23  64 S12       30.18F
WINCHESTER     CLOUDY    34  14  44 SE14G20   30.08F WCI  24
FRONT ROYAL*   CLOUDY    34  19  55 S7        30.10F
LURAY*         CLOUDY    37  27  65 SW16G24   30.10F
$$

VAZ048-049-060>072-079>083-032100-
CENTRAL AND SOUTH CENTRAL VIRGINIA

CITY           SKY/WX    TMP DP  RH WIND       PRES   REMARKS
RICHMOND       CLOUDY    37  22  54 S8        30.23F
CHESTERFIELD*  CLOUDY    37  14  38 S6        30.24F
PETERSBURG*    CLOUDY    39  20  47 S3        30.24F
HANOVER        CLOUDY    35  20  54 S7        30.24F
TAPPAHANNOCK*  CLOUDY    36  19  49 SE6       30.23F
QUINTON*       CLOUDY    35  21  55 S8        30.23F
CHARLOTTSVILLE CLOUDY    34  17  50 S9        30.18F
GORDONSVILLE*  CLOUDY    34  17  50 SW10      30.19F
ORANGE*        CLOUDY    36  19  51 S5        30.21F
LOUISA*        CLOUDY    36  18  48 S5        30.19F
BUMPASS*       CLOUDY    35  17  47 S5        30.21F
FARMVILLE*     CLOUDY    40  20  45 S8        30.21F
CREWE*         CLOUDY    37  17  44 S3        30.21F
FORT PICKETT*  CLOUDY    37  20  51 S7        30.22F
CHASE CITY*    CLOUDY    40  24  54 S7        30.24F
CLARKSVILLE*   CLOUDY    36  25  64 SE6       30.23F
SOUTH HILL*    CLOUDY    37  21  54 S3        30.28F
LAWRENCEVILLE* CLOUDY    37  24  59 S3        30.24F
EMPORIA*       CLOUDY    37  27  65 E3        30.27F
$$

VAZ088>098-032100-
SOUTHEAST VIRGINIA

CITY           SKY/WX    TMP DP  RH WIND       PRES   REMARKS
NORFOLK        CLOUDY    37  29  72 N3        30.25F
VIRGINIA BEACH CLOUDY    41  30  65 VRB3      30.25F
NORFOLK NAVAL  CLOUDY    39  29  67 CALM      30.27F
WEST POINT*    CLOUDY    38  24  57 SE6       30.26F
SALUDA*        CLOUDY    35  26  68 S6        30.24F
NEWPORT NEWS   CLOUDY    40  27  59 SE7       30.24F
LANGLEY AFB    CLOUDY    37  28  69 S6        30.24F
FORT EUSTIS    CLOUDY    36  29  74 S6        30.22F
WILLIAMSBURG*  PTSUNNY   39  28  65 S9        30.25F
HR EXEC AP*    CLOUDY    43  28  56 SE3       30.28F
FRANKLIN*      CLOUDY    40  29  65 SE5       30.25F
WAKEFIELD      CLOUDY    39  25  57 VRB5      30.24F
$$

VAZ020-022-025-037-045-032100-
WEST CENTRAL AND SOUTHWEST VIRGINIA

CITY           SKY/WX    TMP DP  RH WIND       PRES   REMARKS
STAUNTON*      CLOUDY    35  25  66 S7        30.14F
WAYNESBORO*    CLOUDY    34  24  67 CALM      30.12F
HOT SPRINGS VA SNOW      33  33 100 SW15G22   30.00F VSB<1/4 WCI  23
LYNCHBURG      CLOUDY    35  25  66 S9        30.21F
DANVILLE       CLOUDY    38  28  67 W8        30.25S
SOUTH BOSTON*  CLOUDY    38  23  54 SW6       30.25S
MARTINSVILLE   CLOUDY    41  32  70 SW3       30.23F
ROANOKE        CLOUDY    37  28  70 SE7       30.19F
BLACKSBURG     CLOUDY    34  31  87 CALM      30.17F
DUBLIN*        CLOUDY    37  37  99 CALM      30.15S FOG
MARION*        CLOUDY    41  36  81 NE7       30.11F
HILLSVILLE*    FOG       35  34  99 S8        30.11F VSB 1/4
RICHLANDS*     CLOUDY    53  44  72 W8        30.03F
WISE*          FOG       45  45 100 S7        30.03F VSB<1/4
ABINGDON*      CLOUDY    46  42  86 E8        30.06F
$$

MDZ021>025-VAZ099-100-032100-
SOUTHERN MARYLAND AND THE DELMARVA PENINSULA

CITY           SKY/WX    TMP DP  RH WIND       PRES   REMARKS
PATUXENT RIVER FRZ RAIN  32  24  72 SE6       30.23F
BAY BRIDGE APT   N/A     32  28  86 SE6       30.23F
LEONARDTOWN    CLOUDY    32  25  74 SE3       30.24F
DOVER          FRZ RAIN  30  29  96 E8        30.26F
GEORGETOWN     LGT RAIN  33  27  78 SE6       30.25F
EASTON         LGT RAIN  34  28  80 CALM      30.28F FOG
CAMBRIDGE      CLOUDY    36  30  80 CALM      30.23F
SALISBURY      CLOUDY    37  29  72 SE6       30.24F
OCEAN CITY     MIX PCPN  32  27  81 CALM      30.26F
WALLOPS ISLAND LGT RAIN  34  29  82 E5        30.26F
ACCOMACK*      LGT RAIN  36  28  75 SE6       30.25F
$$

NCZ012>017-030>032-032100-
NORTH CENTRAL AND EASTERN NORTH CAROLINA

CITY           SKY/WX    TMP DP  RH WIND       PRES   REMARKS
ROANOKE RAPIDS CLOUDY    37  28  70 CALM      30.25F
RALEIGH        DRIZZLE   36  30  79 CALM      30.24F FOG
ELIZABETH CITY CLOUDY    43  32  65 E5        30.26F
AHOSKIE*       CLOUDY    40  30  67 CALM      30.26F
EDENTON*       CLOUDY    42  33  70 E6        30.26F
CURRITUCK*     CLOUDY    41  30  65 CALM      30.27F
KILL DEVIL HLS CLOUDY    40  34  79 NE3       30.25F
MANTEO         CLOUDY    43  36  75 NE6       30.26F
CAPE HATTERAS  CLOUDY    46  40  79 NE3       30.26F
TARBORO*       CLOUDY    42  31  65 SE3       30.27F
GOLDSBORO      CLOUDY    39  39 100 E5        30.22F FOG
WASHINGTON     PTSUNNY   43  36  76 E5        30.25F
GREENVILLE     FAIR      41  34  75 E5        30.25F
NEW BERN       CLOUDY    48  34  58 E7        30.25F
WILMINGTON     CLOUDY    47  39  74 E6        30.23F
$$

VAZ048-032100-
ELSEWHERE

CITY           SKY/WX    TMP DP  RH WIND       PRES   REMARKS
HARRISBURG PA  FRZ RAIN  28  21  75 SE13      30.16F WCI  17
BALTIMORE      CLOUDY    29  24  82 SE5       30.22F
ANNAPOLIS      MIX PCPN  31  24  75 S10       30.23F WCI  22
ANDREWS AFB    CLOUDY    30  23  75 SE7       30.20F
PHILADELPHIA   LGTSLEET  33  15  47 S10       30.26F WCI  25
HENDERSON NC   CLOUDY    37  22  54 CALM      30.23F
GREENSBORO     DRIZZLE   36  33  89 CALM      30.22F
ROCKY MOUNT    CLOUDY    41  29  62 SE5       30.24F
$$

VAZ100-032100-
MARINE

STATION/POSITION TIME  TEMP    WIND        PRES    WAVE   SWELL
                       AIR SEA DIR/SP/G            HT/PER HT/PER
                 (UTC) (F)     (DEG/KT/KT) (MB)    (FT/S) (FT/S)
BRANDYWINE LGT   2000   30 31  160/  8/  9 1025.3R
CAPE MAY NJ      2000   32 33  110/  6/  8 1024.6F
LEWES DE         2000   31 30  130/  5/  6 1024.7F
15NM E FENWICK I 2000   35 35              1024.5F   2/ 5
OCEAN-CITY-INLET 2000   33 33   90/  4/  6 1024.3F
WACHAPREAGUE VA  2000   35 36   80/  4/  6 1024.9F
THOMAS POINT MD  2000   30 32  170/ 13/ 14 1024.7F
COVE POINT MD    2000   30     190/ 12/ 13 1024.1S
SOLOMONS ISLAND  2000      33                N/A
BISHOPS HEAD MD  2000   33 33  180/  8/  9 1023.8F
CAMBRIDGE MD     2000   33 32  170/  5/  7 1024.1S
LEWISETTA VA     2000   34 33   CALM  /  1 1023.8F
RAPPAHANNOCK LGT 2000          110/  4/  5 1024.6F
STINGRAY PT      2000   33     180/  4/  6   N/A
YORK RVR RNG VA  2000   33     190/  5/  5 1023.9F
YORKTOWN VA      2000   35 34  120/  5/  7 1024.2F
DOMINION TERM VA 2000   35      20/  3/  5 1025.2S
KIPTOPEKE VA     2000      38  130/  4/  5   N/A
CHES BAY BRIDGE  2000   33 34   20/  1/  2 1024.7S
CAPE HENRY VA    2000   34      CALM  /  2 1023.5F
CHESAPEAKE LGHT  1900   35      70/  5/  5 1026.3F
WILLOUBY STN VA  2000   33      50/  5/  5 1025.5S
S CRANEY ISL VA  2000          350/  3/  3 1024.6F
1ST LANDING BUOY 2000   34      CALM  /  2 1024.5F
OFFSHORE WE BUOY 2000      36                N/A     3/ 5   2/ 5
64NM E OF VA BCH 2000   51 62  130/  8/ 12 1024.4F   3/ 6   3/ 6
DUCK PIER NC     2000   35 35   20/  5/  6 1024.2S
44100 DUCK FRF   2000      37                N/A     4/ 6
44056 DUCK FRF   2000      35                N/A     3/ 6
OREGON INLET NC  2000   41 39  360/  7/  9 1024.9F
HATTERAS NC      2000   42 43   40/  8/ 10 1025.1F
CAPE LOOKOUT NC  2000   46      20/  8/ 10 1023.8F
$$



USA.gov is the U.S. government's official web portal to all federal, state and local government web resources and services.